North Wilkesboro, NC

2:43 AM EDT on October 23, 2019 (GMT -0400)
Wilkes County

Weather History for KUKF - August, 2019

Change the Weather History Date:

Wednesday, August 21, 2019

  Actual Average Record
Temperature  
Mean Temperature 78 °F -  
Max Temperature 89 °F 86 °F 100 °F (1983)
Min Temperature 68 °F 61 °F 55 °F (1973)
Cooling Degree Days 14    
Growing Degree Days 28 (Base 50)    
Moisture  
Dew Point 71 °F    
Average Humidity 87    
Maximum Humidity 100    
Minimum Humidity 52    
Precipitation  
Precipitation 0.41 in - - ()
Sea Level Pressure  
Sea Level Pressure 30.12 in    
Wind  
Wind Speed 3 mph (SW)    
Max Wind Speed 23 mph    
Max Gust Speed 33 mph    
Visibility 10 miles    
Events Rain , Thunderstorm    
Averages and records for this station are not official NWS values.
T = Trace of Precipitation, MM = Missing Value Source: NWS Daily Summary

Daily Weather History Graph

Daily Weather History Graph

Search for Another Location

Airport or City:

Astronomy

Aug. 21, 2019 Rise Set
Actual Time 6:47 AM EDT 8:07 PM EDT
Civil Twilight 6:20 AM EDT 8:34 PM EDT
Nautical Twilight 5:47 AM EDT 9:06 PM EDT
Astronomical Twilight 5:14 AM EDT 9:39 PM EDT
Moon 11:34 PM EDT (8/21) 12:11 PM EDT (8/21)
Length of Visible Light 14h 14m
Length of Day
13h 20m
Waning Gibbous, 69% of the Moon is Illuminated
Aug 21
Waning Gibbous
Aug 23
Last Quarter
Aug 30
New
Sep 5
First Quarter
Sep 14
Full

Hourly Weather History & Observations

Time (EDT) Temp. Heat Index Dew Point Humidity Pressure Visibility Wind Dir Wind Speed Gust Speed Precip Events Conditions
1:15 AM 68.0 °F - 68.0 °F 100% 30.17 in 10.0 mi Calm Calm - N/A   Overcast
2:35 AM 69.8 °F - 69.8 °F 100% 30.14 in 10.0 mi Calm Calm - N/A   Overcast
3:15 AM 69.8 °F - 69.8 °F 100% 30.15 in 10.0 mi Calm Calm - N/A   Overcast
3:35 AM 69.8 °F - 69.8 °F 100% 30.14 in 10.0 mi Calm Calm - N/A   Mostly Cloudy
3:55 AM 68.0 °F - 68.0 °F 100% 30.14 in 10.0 mi Calm Calm - N/A   Mostly Cloudy
4:15 AM 69.8 °F - 69.8 °F 100% 30.14 in 10.0 mi Calm Calm - N/A   Overcast
4:35 AM 69.8 °F - 69.8 °F 100% 30.14 in 10.0 mi Calm Calm - N/A   Overcast
4:55 AM 69.8 °F - 69.8 °F 100% 30.14 in 10.0 mi Calm Calm - N/A   Overcast
5:35 AM 69.8 °F - 69.8 °F 100% 30.13 in 10.0 mi Calm Calm - N/A   Overcast
5:55 AM 69.8 °F - 69.8 °F 100% 30.13 in 10.0 mi Calm Calm - N/A   Overcast
6:15 AM 69.8 °F - 69.8 °F 100% 30.13 in 10.0 mi Calm Calm - N/A   Overcast
6:55 AM 69.8 °F - 69.8 °F 100% 30.13 in 10.0 mi Calm Calm - N/A   Overcast
7:15 AM 69.8 °F - 69.8 °F 100% 30.13 in 10.0 mi WSW 4.6 mph - N/A   Overcast
7:35 AM 69.8 °F - 69.8 °F 100% 30.13 in 10.0 mi WSW 5.8 mph - N/A   Overcast
7:55 AM 69.8 °F - 69.8 °F 100% 30.13 in 10.0 mi WSW 4.6 mph - N/A   Overcast
8:15 AM 69.8 °F - 69.8 °F 100% 30.14 in 10.0 mi SW 5.8 mph - N/A   Overcast
8:35 AM 69.8 °F - 69.8 °F 100% 30.14 in 10.0 mi SW 6.9 mph - N/A   Overcast
8:55 AM 71.6 °F - 71.6 °F 100% 30.14 in 10.0 mi SW 8.1 mph - N/A   Overcast
9:15 AM 71.6 °F - 71.6 °F 100% 30.14 in 10.0 mi WSW 3.5 mph - N/A   Overcast
9:35 AM 73.4 °F - 73.4 °F 100% 30.13 in 10.0 mi SW 5.8 mph - N/A   Mostly Cloudy
9:55 AM 77.0 °F - 71.6 °F 83% 30.13 in 10.0 mi SW 5.8 mph - N/A   Clear
10:15 AM 78.8 °F - 71.6 °F 78% 30.13 in 10.0 mi South 4.6 mph - N/A   Clear
10:35 AM 78.8 °F - 71.6 °F 78% 30.14 in 10.0 mi SW 4.6 mph - N/A   Clear
10:55 AM 80.6 °F 84.6 °F 71.6 °F 74% 30.14 in 10.0 mi SW 3.5 mph - N/A   Clear
11:15 AM 82.4 °F 87.2 °F 71.6 °F 70% 30.13 in 10.0 mi SW 4.6 mph - N/A   Clear
11:35 AM 84.2 °F 88.4 °F 69.8 °F 62% 30.13 in 10.0 mi Calm Calm - N/A   Clear
11:55 AM 86.0 °F 90.4 °F 69.8 °F 58% 30.13 in 10.0 mi Calm Calm - N/A   Clear
12:15 PM 86.0 °F 90.4 °F 69.8 °F 58% 30.13 in 10.0 mi Calm Calm - N/A   Clear
12:35 PM 86.0 °F 90.4 °F 69.8 °F 58% 30.12 in 10.0 mi SW 9.2 mph - N/A   Scattered Clouds
12:55 PM 86.0 °F 90.4 °F 69.8 °F 58% 30.12 in 10.0 mi SW 5.8 mph - N/A   Scattered Clouds
1:35 PM 86.0 °F 90.4 °F 69.8 °F 58% 30.12 in 10.0 mi SW 8.1 mph - N/A   Clear
1:55 PM 87.8 °F 92.6 °F 69.8 °F 55% 30.11 in 10.0 mi SSW 4.6 mph - N/A   Scattered Clouds
2:15 PM 87.8 °F 92.6 °F 69.8 °F 55% 30.10 in 10.0 mi SSW 10.4 mph 16.1 mph N/A   Scattered Clouds
2:35 PM 89.6 °F 94.7 °F 69.8 °F 52% 30.10 in 10.0 mi WSW 8.1 mph - N/A   Clear
2:55 PM 89.6 °F 94.7 °F 69.8 °F 52% 30.10 in 10.0 mi SW 5.8 mph - N/A   Scattered Clouds
3:15 PM 89.6 °F 94.7 °F 69.8 °F 52% 30.09 in 10.0 mi SW 9.2 mph 16.1 mph N/A   Scattered Clouds
3:35 PM 86.0 °F 90.4 °F 69.8 °F 58% 30.11 in 2.5 mi WNW 23.0 mph 33.4 mph 0.04 in   Haze
3:55 PM 71.6 °F - 71.6 °F 100% 30.06 in 1.8 mi South 10.4 mph 26.5 mph 0.41 in Rain , Thunderstorm Light Thunderstorms and Rain
4:15 PM 75.2 °F - 73.4 °F 94% 30.13 in 10.0 mi SW 5.8 mph - N/A Rain , Thunderstorm Light Thunderstorms and Rain
4:35 PM 78.8 °F - 73.4 °F 83% 30.08 in 10.0 mi SSW 10.4 mph - N/A Thunderstorm Thunderstorm
4:55 PM 77.0 °F - 71.6 °F 83% 30.07 in 10.0 mi SSW 8.1 mph - N/A   Clear
5:15 PM 77.0 °F - 69.8 °F 78% 30.08 in 10.0 mi WSW 4.6 mph - N/A Thunderstorm Scattered Clouds
5:35 PM 73.4 °F - 69.8 °F 88% 30.11 in 10.0 mi SW 13.8 mph 18.4 mph N/A Thunderstorm Clear
5:55 PM 71.6 °F - 69.8 °F 94% 30.10 in 10.0 mi SW 9.2 mph 20.7 mph N/A Thunderstorm Scattered Clouds
6:15 PM 71.6 °F - 71.6 °F 100% 30.09 in 10.0 mi SW 5.8 mph - N/A   Light Drizzle
6:55 PM 73.4 °F - 71.6 °F 94% 30.07 in 10.0 mi North - - N/A   Clear
7:15 PM 75.2 °F - 71.6 °F 89% 30.07 in 10.0 mi Calm Calm - N/A   Clear
7:35 PM 75.2 °F - 71.6 °F 89% 30.07 in 10.0 mi Calm Calm - N/A   Clear
7:55 PM 73.4 °F - 73.4 °F 100% 30.08 in 10.0 mi Calm Calm - N/A   Clear
8:15 PM 73.4 °F - 71.6 °F 94% 30.08 in 10.0 mi WSW 4.6 mph - N/A   Clear
8:35 PM 73.4 °F - 69.8 °F 88% 30.09 in 10.0 mi SW 4.6 mph - N/A   Clear
8:55 PM 71.6 °F - 71.6 °F 100% 30.10 in 10.0 mi WSW 3.5 mph - N/A   Clear
9:15 PM 71.6 °F - 71.6 °F 100% 30.10 in 10.0 mi Calm Calm - N/A   Clear
9:35 PM 71.6 °F - 71.6 °F 100% 30.10 in 10.0 mi Calm Calm - N/A   Clear
9:55 PM 71.6 °F - 71.6 °F 100% 30.11 in 10.0 mi West 3.5 mph - N/A   Clear
10:15 PM 71.6 °F - 71.6 °F 100% 30.11 in 10.0 mi West 4.6 mph - N/A   Clear
10:35 PM 71.6 °F - 71.6 °F 100% 30.11 in 10.0 mi WSW 4.6 mph - N/A   Clear
10:55 PM 69.8 °F - 69.8 °F 100% 30.11 in 10.0 mi WSW 4.6 mph - N/A   Clear
11:15 PM 69.8 °F - 69.8 °F 100% 30.12 in 10.0 mi WSW 3.5 mph - N/A   Clear
11:35 PM 69.8 °F - 69.8 °F 100% 30.11 in 10.0 mi Calm Calm - N/A   Clear
11:55 PM 69.8 °F - 69.8 °F 100% 30.12 in 10.0 mi Calm Calm - N/A   Clear